Location: Kerentrech
(47.7567°N, 3.3595°W)
Time: 07:09:12
(UTC+00:00)

Cosmos 1535 Rocket - Pass Details

Date: 17 February 2020
Orbit: 947 x 1005 km, 83.0° (Epoch: 30 March)

Event Time Altitude Azimuth Distance (km) Brightness Sun altitude
Rises 04:51:33 0° 347° (NNW) 3,703 7.5 -25.0°
Reaches altitude 10° 04:54:08 10° 344° (NNW) 2,742 6.8 -24.6°
Maximum altitude 05:00:13 55° 268° (W) 1,156 4.5 -23.6°
Drops below altitude 10° 05:06:11 10° 193° (SSW) 2,686 6.6 -22.6°
Sets 05:08:42 0° 189° (S) 3,621 7.3 -22.2°
